Greenville, AL

6:58 AM CST on February 26, 2017 (GMT -0600)
Greenville Municipal

Weather History for KPRN - March, 2014

Change the Weather History Date:

Wednesday, March 26, 2014

  Actual Average Record
Temperature  
Mean Temperature 42 °F -  
Max Temperature 57 °F 71 °F 89 °F (1936)
Min Temperature 28 °F 44 °F 28 °F (1979)
Degree Days  
Heating Degree Days 24    
Moisture  
Dew Point 22 °F    
Average Humidity 47    
Maximum Humidity 82    
Minimum Humidity 21    
Precipitation  
Precipitation 0.00 in - - ()
Sea Level Pressure  
Sea Level Pressure 30.29 in    
Wind  
Wind Speed 4 mph (NNE)    
Max Wind Speed 9 mph    
Max Gust Speed 20 mph    
Visibility 10 miles    
Events      
Averages and records for this station are not official NWS values.
T = Trace of Precipitation, MM = Missing Value Source: NWS Daily Summary

Daily Weather History Graph

Daily Weather History Graph

Search for Another Location

Airport or City:

Trip Planner

Search our weather history database for the weather conditions in past years. The results will help you decide how hot, cold, wet, or windy it might be!

Date:

Astronomy

Mar. 26, 2014 Rise Set
Actual Time 6:42 AM CDT 7:02 PM CDT
Civil Twilight 6:18 AM CDT 7:26 PM CDT
Nautical Twilight 5:49 AM CDT 7:55 PM CDT
Astronomical Twilight 5:20 AM CDT 8:24 PM CDT
Moon 3:35 AM CDT 2:54 PM CDT
Length of Visible Light 13h 08m
Length of Day
12h 19m
Waning Crescent, 21% of the Moon is Illuminated
Mar 26
Waning Crescent
Mar 30
New
Apr 7
First Quarter
Apr 15
Full
Apr 22
Last Quarter

Hourly Weather History & Observations

Time (CDT) Temp. Windchill Dew Point Humidity Pressure Visibility Wind Dir Wind Speed Gust Speed Precip Events Conditions
12:56 AM 39.9 °F 36.7 °F 19.0 °F 43% 30.25 in 10.0 mi North 4.6 mph - N/A   Clear
1:56 AM 37.9 °F 34.4 °F 19.0 °F 47% 30.25 in 10.0 mi NNW 4.6 mph - N/A   Clear
2:56 AM 32.0 °F 28.7 °F 26.1 °F 79% 30.26 in 10.0 mi North 3.5 mph - N/A   Clear
3:56 AM 30.9 °F - 26.1 °F 82% 30.27 in 10.0 mi Calm Calm - N/A   Clear
5:56 AM 28.9 °F 22.8 °F 24.1 °F 82% 30.30 in 10.0 mi North 5.8 mph - N/A   Clear
6:56 AM 32.0 °F - 21.0 °F 64% 30.32 in 10.0 mi Calm Calm - N/A   Clear
7:56 AM 36.0 °F - 25.0 °F 64% 30.35 in 10.0 mi Calm Calm - N/A   Clear
8:56 AM 43.0 °F 38.8 °F 18.0 °F 37% 30.36 in 10.0 mi East 6.9 mph - N/A   Clear
9:56 AM 46.0 °F 41.4 °F 16.0 °F 30% 30.37 in 10.0 mi NE 9.2 mph 19.6 mph N/A   Clear
10:56 AM 48.0 °F - 14.0 °F 26% 30.40 in 10.0 mi NW 4.6 mph - N/A   Clear
11:56 AM 51.1 °F - 15.1 °F 24% 30.37 in 10.0 mi North 6.9 mph - N/A   Clear
12:56 PM 53.1 °F - 16.0 °F 23% 30.35 in 10.0 mi East 8.1 mph - N/A   Clear
1:56 PM 54.0 °F - 14.0 °F 21% 30.30 in 10.0 mi NNW 8.1 mph - N/A   Clear
2:56 PM 55.9 °F - 17.1 °F 22% 30.28 in 10.0 mi NE 5.8 mph - N/A   Clear
3:56 PM 55.9 °F - 16.0 °F 21% 30.27 in 10.0 mi Variable 5.8 mph - N/A   Clear
4:56 PM 55.0 °F - 19.0 °F 24% 30.25 in 10.0 mi East 4.6 mph - N/A   Clear
5:56 PM 54.0 °F - 19.0 °F 25% 30.24 in 10.0 mi East 4.6 mph - N/A   Clear
6:56 PM 53.1 °F - 21.0 °F 29% 30.25 in 10.0 mi Calm Calm - N/A   Clear
7:56 PM 46.9 °F - 28.9 °F 50% 30.25 in 10.0 mi Calm Calm - N/A   Clear
8:56 PM 42.1 °F - 33.1 °F 70% 30.25 in 10.0 mi Calm Calm - N/A   Clear
9:56 PM 39.9 °F - 32.0 °F 73% 30.25 in 10.0 mi Calm Calm - N/A   Clear
10:56 PM 39.9 °F - 32.0 °F 73% 30.24 in 10.0 mi Calm Calm - N/A   Clear
11:56 PM 39.9 °F - 34.0 °F 79% 30.24 in 10.0 mi Calm Calm - N/A   Clear